TimeEDT,TemperatureF,Dew PointF,Humidity,Sea Level PressureIn,VisibilityMPH,Wind Direction,Wind SpeedMPH,Gust SpeedMPH,PrecipitationIn,Events,Conditions,WindDirDegrees,DateUTC
12:29 AM,62.6,60.8,94,29.88,2.5,NE,5.8,-,N/A,,Overcast,40,2012-10-03 04:29:00
12:53 AM,62.1,61.0,96,29.87,1.8,ENE,3.5,-,N/A,,Overcast,70,2012-10-03 04:53:00
1:19 AM,62.6,60.8,94,29.89,0.8,Calm,Calm,-,N/A,,Overcast,0,2012-10-03 05:19:00
1:32 AM,60.8,60.8,100,29.89,0.5,Calm,Calm,-,N/A,Fog,Fog,0,2012-10-03 05:32:00
1:53 AM,62.1,61.0,96,29.88,0.2,Calm,Calm,-,N/A,Fog,Fog,0,2012-10-03 05:53:00
2:53 AM,61.0,61.0,100,29.91,0.2,SW,9.2,-,N/A,Fog,Fog,220,2012-10-03 06:53:00
3:09 AM,60.8,60.8,100,29.93,0.5,SSW,6.9,-,0.01,Fog,Fog,210,2012-10-03 07:09:00
3:53 AM,60.1,60.1,100,29.93,0.5,SSW,6.9,-,0.01,Fog,Fog,210,2012-10-03 07:53:00
4:09 AM,60.8,60.8,100,29.94,1.5,Calm,Calm,-,0.03,Rain,Light Rain,0,2012-10-03 08:09:00
4:17 AM,60.8,59.0,94,29.94,2.5,Calm,Calm,-,0.03,Rain,Light Rain,0,2012-10-03 08:17:00
4:46 AM,60.8,60.8,100,29.95,2.5,South,3.5,-,0.03,,Overcast,170,2012-10-03 08:46:00
4:53 AM,60.1,60.1,100,29.94,2.5,South,4.6,-,0.03,,Overcast,170,2012-10-03 08:53:00
5:22 AM,60.8,59.0,94,29.94,3.0,SSE,5.8,-,N/A,,Overcast,150,2012-10-03 09:22:00
5:53 AM,60.1,60.1,100,29.94,3.0,South,4.6,-,N/A,,Overcast,170,2012-10-03 09:53:00
6:53 AM,60.1,59.0,96,29.96,4.0,SSE,5.8,-,N/A,,Overcast,160,2012-10-03 10:53:00
7:19 AM,60.8,59.0,94,29.98,2.5,South,6.9,-,0.00,Rain,Light Rain,180,2012-10-03 11:19:00
7:48 AM,60.8,59.0,94,29.99,4.0,SSW,4.6,-,0.00,Rain,Light Rain,210,2012-10-03 11:48:00
7:53 AM,60.1,59.0,96,29.97,4.0,South,3.5,-,0.00,Rain,Light Rain,190,2012-10-03 11:53:00
8:19 AM,60.8,59.0,94,30.00,4.0,SSW,6.9,-,0.01,,Overcast,200,2012-10-03 12:19:00
8:53 AM,61.0,57.9,90,30.00,6.0,SSW,8.1,-,0.01,,Scattered Clouds,200,2012-10-03 12:53:00
9:53 AM,61.0,57.0,87,30.01,10.0,SSW,6.9,-,N/A,,Overcast,210,2012-10-03 13:53:00
10:53 AM,61.0,55.9,83,30.02,10.0,SSW,11.5,17.3,N/A,,Overcast,210,2012-10-03 14:53:00
11:53 AM,60.1,55.9,86,30.03,10.0,SSW,9.2,-,N/A,,Overcast,210,2012-10-03 15:53:00
12:05 PM,60.8,55.4,82,30.05,10.0,SSW,8.1,-,N/A,,Overcast,210,2012-10-03 16:05:00
12:36 PM,60.8,55.4,82,30.05,10.0,SW,11.5,-,N/A,,Overcast,220,2012-10-03 16:36:00
12:53 PM,57.9,55.0,90,30.04,8.0,SW,11.5,-,N/A,,Overcast,230,2012-10-03 16:53:00
1:03 PM,57.2,55.4,94,30.05,7.0,SW,12.7,-,N/A,,Overcast,220,2012-10-03 17:03:00
1:53 PM,60.1,55.0,83,30.04,10.0,SSW,10.4,-,N/A,,Overcast,200,2012-10-03 17:53:00
2:00 PM,60.8,55.4,82,30.05,10.0,SSW,11.5,-,N/A,,Overcast,200,2012-10-03 18:00:00
2:53 PM,62.1,54.0,75,30.03,10.0,SSW,9.2,-,N/A,,Overcast,200,2012-10-03 18:53:00
3:53 PM,62.1,54.0,75,30.03,10.0,South,15.0,-,N/A,,Overcast,180,2012-10-03 19:53:00
4:04 PM,62.6,53.6,72,30.05,10.0,SSW,13.8,-,N/A,,Overcast,200,2012-10-03 20:04:00
4:25 PM,62.6,53.6,72,30.04,10.0,SSW,11.5,-,N/A,,Overcast,210,2012-10-03 20:25:00
4:53 PM,64.0,55.0,73,30.03,10.0,SSW,10.4,-,N/A,,Mostly Cloudy,200,2012-10-03 20:53:00
5:53 PM,64.0,55.0,73,30.04,10.0,South,11.5,-,N/A,,Overcast,180,2012-10-03 21:53:00
6:53 PM,62.1,55.0,78,30.05,10.0,SSE,9.2,-,N/A,,Partly Cloudy,160,2012-10-03 22:53:00
7:53 PM,59.0,54.0,83,30.06,10.0,SSE,6.9,-,N/A,,Clear,160,2012-10-03 23:53:00
8:53 PM,57.9,54.0,87,30.06,10.0,South,5.8,-,N/A,,Clear,170,2012-10-04 00:53:00
9:53 PM,55.9,53.1,90,30.08,10.0,South,8.1,-,N/A,,Clear,170,2012-10-04 01:53:00
10:53 PM,55.0,52.0,89,30.09,10.0,South,6.9,-,N/A,,Partly Cloudy,170,2012-10-04 02:53:00
11:53 PM,55.9,52.0,87,30.09,10.0,South,9.2,-,N/A,,Clear,170,2012-10-04 03:53:00